Weather History for Covington, KY

Change the Weather History Date:

Monday, December 31, 2012

  Actual Average Record
Temperature  
Mean Temperature 29 °F 31 °F  
Max Temperature 36 °F 39 °F 72 °F (1875)
Min Temperature 21 °F 24 °F -2 °F (1976)
Degree Days  
Heating Degree Days 36 34  
Month to date heating degree days 760 959  
Since 1 July heating degree days 1866 1919  
Cooling Degree Days 0 0  
Month to date cooling degree days 0 0  
Year to date cooling degree days 1439 1121  
Moisture  
Dew Point 26 °F    
Average Humidity 77    
Maximum Humidity 89    
Minimum Humidity 64    
Precipitation  
Precipitation 0.02 in 0.10 in 2.50 in (1871)
Month to date precipitation 5.75 3.37  
Year to date precipitation 38.78 42.52  
Snow  
Snow 0.20 in 0.20 in 5.60 in (1960)
Month to date snowfall 7.6 4.8  
Since 1 July snowfall 7.6 5.6  
Snow Depth 2.00 in    
Sea Level Pressure  
Sea Level Pressure 30.17 in    
Wind  
Wind Speed 8 mph (SW)    
Max Wind Speed 17 mph    
Max Gust Speed 24 mph    
Visibility 8 miles    
Events Snow    
T = Trace of Precipitation, MM = Missing Value Source: NWS Daily Summary

Daily Weather History Graph

Daily Weather History Graph

Search for Another Location

Airport:

Trip Planner

Search our weather history database for the weather conditions in past years. The results will help you decide how hot, cold, wet, or windy it might be!

Date:

Astronomy

Dec. 31, 2012 Rise Set
Actual Time 7:57 AM EST 5:26 PM EST
Civil Twilight 7:27 AM EST 5:56 PM EST
Nautical Twilight 6:54 AM EST 6:29 PM EST
Astronomical Twilight 6:21 AM EST 7:02 PM EST
Moon 8:54 PM EST (12/31) 9:40 AM EST (12/31)
Length of Visible Light 10h 28m
Length of Day
9h 28m
Waning Gibbous, 90% of the Moon is Illuminated
Dec 31
Waning Gibbous
Jan 4
Last Quarter
Jan 11
New
Jan 18
First Quarter
Jan 26
Full

Hourly Weather History & Observations

Time (EST) Temp. Windchill Dew Point Humidity Pressure Visibility Wind Dir Wind Speed Gust Speed Precip Events Conditions
12:52 AM 21.9 °F 15.7 °F 18.0 °F 85% 30.33 in 9.0 mi SSW 4.6 mph - N/A   Overcast
1:52 AM 24.1 °F 14.4 °F 19.0 °F 81% 30.30 in 9.0 mi South 9.2 mph - N/A   Overcast
2:52 AM 24.1 °F 15.2 °F 19.0 °F 81% 30.30 in 9.0 mi SSW 8.1 mph - N/A   Overcast
3:52 AM 25.0 °F 15.5 °F 19.0 °F 78% 30.27 in 9.0 mi South 9.2 mph - N/A   Overcast
4:52 AM 25.0 °F 16.3 °F 19.9 °F 81% 30.28 in 10.0 mi SSW 8.1 mph - N/A   Overcast
5:52 AM 27.0 °F 16.7 °F 21.0 °F 78% 30.25 in 10.0 mi South 11.5 mph - N/A   Overcast
6:52 AM 28.9 °F 21.1 °F 21.9 °F 75% 30.25 in 10.0 mi SSW 8.1 mph - N/A   Overcast
7:52 AM 30.0 °F 21.7 °F 21.9 °F 72% 30.24 in 10.0 mi SW 9.2 mph - N/A   Overcast
8:52 AM 30.9 °F 22.2 °F 23.0 °F 72% 30.23 in 10.0 mi SW 10.4 mph - N/A   Overcast
9:52 AM 30.9 °F 20.2 °F 23.0 °F 72% 30.23 in 10.0 mi SSW 15.0 mph 20.7 mph N/A   Overcast
10:52 AM 33.1 °F 24.4 °F 24.1 °F 70% 30.23 in 10.0 mi SW 11.5 mph - N/A   Overcast
11:52 AM 34.0 °F 26.6 °F 24.1 °F 67% 30.21 in 10.0 mi SW 9.2 mph - N/A   Overcast
12:52 PM 35.1 °F 29.3 °F 24.1 °F 64% 30.14 in 10.0 mi SW 6.9 mph - N/A   Overcast
1:52 PM 35.1 °F 28.6 °F 25.0 °F 67% 30.14 in 9.0 mi SW 8.1 mph 17.3 mph 0.00 in Snow Light Snow
2:02 PM 35.6 °F 27.5 °F 24.8 °F 65% 30.12 in 3.0 mi SW 11.5 mph - 0.00 in Snow Light Snow
2:12 PM 35.6 °F 28.6 °F 24.8 °F 65% 30.13 in 8.0 mi WSW 9.2 mph - 0.00 in Snow Light Snow
2:32 PM 35.6 °F 28.6 °F 24.8 °F 65% 30.12 in 8.0 mi SW 9.2 mph - 0.00 in   Overcast
2:52 PM 35.1 °F 27.4 °F 26.1 °F 70% 30.14 in 9.0 mi SW 10.4 mph - 0.00 in Snow Light Snow
3:20 PM 33.8 °F 25.8 °F 28.4 °F 81% 30.12 in 2.0 mi SW 10.4 mph 18.4 mph 0.00 in Snow Light Snow
3:52 PM 33.1 °F 26.9 °F 30.0 °F 89% 30.15 in 2.0 mi SW 6.9 mph - 0.00 in Snow Light Snow
4:16 PM 33.8 °F 28.6 °F 30.2 °F 87% 30.11 in 2.0 mi SSW 5.8 mph - 0.00 in Snow Light Snow
4:52 PM 33.1 °F 30.0 °F 30.0 °F 89% 30.12 in 2.0 mi SW 3.5 mph - 0.00 in Snow Light Snow
5:18 PM 33.8 °F 28.6 °F 30.2 °F 87% 30.10 in 2.0 mi SW 5.8 mph - 0.00 in Snow Light Snow
5:37 PM 33.8 °F 27.7 °F 30.2 °F 87% 30.11 in 7.0 mi SW 6.9 mph - 0.00 in   Overcast
5:52 PM 34.0 °F 28.8 °F 30.9 °F 89% 30.14 in 8.0 mi SSW 5.8 mph - 0.00 in Snow Light Snow
6:35 PM 33.8 °F 28.6 °F 30.2 °F 87% 30.12 in 9.0 mi SW 5.8 mph - 0.00 in   Overcast
6:52 PM 34.0 °F 31.0 °F 30.9 °F 89% 30.13 in 9.0 mi WSW 3.5 mph - 0.00 in   Overcast
7:52 PM 34.0 °F 31.0 °F 30.0 °F 85% 30.12 in 9.0 mi SW 3.5 mph - 0.00 in   Overcast
8:43 PM 33.8 °F 29.6 °F 30.2 °F 87% 30.09 in 9.0 mi South 4.6 mph - N/A   Overcast
8:52 PM 33.1 °F 28.7 °F 30.0 °F 89% 30.11 in 9.0 mi SSW 4.6 mph - N/A   Overcast
9:52 PM 33.1 °F 26.9 °F 28.9 °F 85% 30.09 in 9.0 mi SSW 6.9 mph - N/A   Overcast
10:52 PM 34.0 °F 27.2 °F 28.9 °F 82% 30.08 in 5.0 mi SSW 8.1 mph - 0.00 in Snow Light Snow
11:34 PM 33.8 °F 26.4 °F 30.2 °F 87% 30.06 in 4.0 mi SW 9.2 mph - 0.00 in Snow Light Snow
11:36 PM 33.8 °F 27.7 °F 30.2 °F 87% 30.07 in 1.5 mi SW 6.9 mph - 0.00 in Snow Light Snow
11:52 PM 33.1 °F 27.7 °F 30.9 °F 92% 30.09 in 1.2 mi SW 5.8 mph - 0.02 in Snow Light Snow